Flag for Brazil Weather past 2 weeks in Florianópolis, Santa Catarina, Brazil

Now
64 °F

Clear.


Feels Like: 64 °F
Forecast: 61 / 77 °F
Wind: 3 mph from East

Location: Florianopolis Aeroporto

Current Time: Aug 2, 2015 at 12:28:57 AM

Latest Report: Aug 2, 2015 at 12:00 AM


Visibility: 10 mi

Pressure: 30.07 "Hg

Humidity: 94%

Dew point: 63 °F

Location of FlorianópolisLocation

Historic Weather in Florianópolis — Graph

°F

Florianópolis temperature yesterday

Maximum temperature yesterday: 81 °F (at 11:00 AM)
Minimum temperature yesterday: 64 °F (at 11:00 PM)
Average temperature yesterday: 71 °F

Past Weeks' High & Low Weather Summary

 TemperatureHumidityPressure
High81 °F (Aug 1, 11:00 AM)100% (Jul 30, 8:00 AM)30.33 "Hg (Jul 30, 8:00 AM)
Low55 °F (Jul 18, 7:00 AM)41% (Jul 31, 4:00 PM)29.86 "Hg (Jul 20, 7:00 PM)
Average66 °F80%30.11 "Hg
* Reported Jul 17 11:00 PM — Aug 1 11:00 PM, Florianópolis, Weather by CustomWeather, © 2015

Note: Actual official high and low records may vary slightly from our data, if they occured in-between our weather recording intervals... More about our weather records

Advertising

Florianópolis weather history for previous 24 hours

 ConditionsComfort  
Time TempWeatherWind HumidityBarometerVisibility
11:00 PM
Sat, Aug 1
64 °FClear.2 mph88%30.09 "Hg10 mi
10:00 PM66 °FClear.6 mph88%30.09 "Hg10 mi
9:00 PM66 °FClear.7 mph88%30.07 "Hg10 mi
8:00 PM68 °FClear.6 mph83%30.07 "Hg10 mi
7:00 PM70 °FClear.No wind73%30.07 "Hg10 mi
6:00 PM70 °FClear.3 mph78%30.04 "Hg10 mi
5:00 PM75 °FClear.7 mph61%30.04 "Hg10 mi
4:00 PM77 °FPassing clouds.10 mph57%30.04 "HgN/A
3:00 PM77 °FSunny.10 mph57%30.07 "Hg10 mi
2:00 PM79 °FSunny.12 mph54%30.07 "Hg10 mi
1:00 PM81 °FSunny.10 mph51%30.07 "Hg10 mi
12:00 PM81 °FSunny.8 mph54%30.09 "Hg10 mi
11:00 AM81 °FSunny.9 mph51%30.09 "Hg10 mi
10:00 AM77 °FScattered clouds.12 mph57%30.09 "HgN/A
9:00 AM75 °FScattered clouds.9 mph57%30.09 "HgN/A
8:00 AM68 °FScattered clouds.6 mph78%30.04 "HgN/A
7:00 AM68 °FPassing clouds.12 mph78%30.01 "HgN/A
6:00 AM68 °FPassing clouds.13 mph78%29.98 "HgN/A
5:00 AM66 °FPassing clouds.14 mph83%30.07 "HgN/A
4:00 AM66 °FPassing clouds.14 mph83%30.07 "HgN/A
3:00 AM66 °FPassing clouds.13 mph83%30.07 "HgN/A
2:00 AM66 °FPassing clouds.16 mph88%30.07 "HgN/A
1:00 AM66 °FPassing clouds.13 mph83%30.07 "HgN/A
12:00 AM66 °FPassing clouds.16 mph88%30.07 "HgN/A
Weather by CustomWeather, © 2015

See weather overviewHow to use our weather pages